[[{"header":{"parameterUnit":"m.s-1","parameterCategory":1,"la1":30.2991,"la2":30.254,"lo1":-89.0895,"lo2":-89.0444,"dy":0.0017,"dx":0.0017,"nx":28,"ny":28,"refTime":"2024-09-24T21:00:00:Z","depth":0,"parameterNumber":2,"parameterNumberName":"U-component_of_WINDS"},"data":[0,0,0,0,0,0,0,0,0,0,0,0,0,0,0,0,0,0,0,0,0,0,0,0,0,0,0,0,0,0,0,0,0,0,0,0,0,0,0,0,0,0,0,0,0,0,0,0,0,0,0,0,0,0,0,0,0,0,0.9487,0.9485,0,0.9304,0.9302,0.93,0.9239,0.924,0.9241,0.9242,0.9038,0.9032,0.9026,0,0,0,0,0,0,0,0,0,0,0,0,0,0.9768,0.9763,0.9487,0.9485,0.9483,0.9304,0.9302,0.9299,0.9239,0.924,0.9241,0.9242,0.9041,0.9033,0.9026,0,0,0,0,0,0,0,0,0,0,0,0,0,0.9621,0.9761,0.9487,0.9432,0.9425,0.9305,0.9301,0.9298,0.9239,0.924,0.9241,0.9243,0.9043,0.9034,0.9025,0.8942,0,0,0.8996,0.8992,0,0,0,0,0,0,0,0,0.9629,0.9611,0.9442,0.9435,0.9427,0.9296,0.9326,0.9178,0.9239,0.9309,0.9242,0.9243,0.9122,0.9106,0.9069,0.8933,0.8924,0.8996,0.899,0.8986,0.8983,0,0,0,0,0,0,0,0.964,0.9618,0.9414,0.9439,0.943,0.941,0.939,0.9298,0.921,0.9303,0.9298,0.9278,0.9118,0.9078,0.9064,0.8921,0.8996,0.8988,0.8982,0.8978,0.8701,0.8699,0,0,0,0,0,0,0.9662,0.9627,0.942,0.9409,0.9534,0.9404,0.9382,0.9337,0.9211,0.9194,0.9277,0.9276,0.9093,0.9074,0.9056,0.8947,0.8986,0.8977,0.8972,0.8703,0.8701,0.8699,0,0,0,0,0,0,0.9668,0.9644,0.9427,0.9516,0.9487,0.9398,0.9347,0.9332,0.9292,0.9192,0.9174,0.9253,0.9093,0.9069,0.8971,0.8939,0.8973,0.8965,0.8705,0.8702,0.87,0.8731,0,0,0,0,0,0,0.9676,0.9646,0.9619,0.9517,0.9483,0.9351,0.9345,0.9328,0.9278,0.9275,0.9165,0.9148,0.9092,0.8985,0.8962,0.8927,0.8957,0.8707,0.8704,0.87,0.8733,0.873,0.8728,0,0,0,0,0,0.9687,0.9633,0.9618,0.9593,0.9447,0.9349,0.9329,0.9271,0.9276,0.9244,0.9179,0.9151,0.8947,0.8975,0.8948,0.8911,0.8709,0.8705,0.8701,0.8734,0.8731,0.8728,0,0,0,0,0,0,0.9729,0.9618,0.96,0.9513,0.9442,0.9339,0.9298,0.9271,0.9192,0.9192,0.9118,0.9094,0.8999,0.8945,0.8979,0.8821,0.8826,0.8816,0.886,0.8856,0.8854,0.8867,0.895,0,0,0,0,0,0.9729,0.9664,0.9569,0.95,0.9466,0.9388,0.9343,0.9305,0.9225,0.9193,0.9121,0.904,0.8957,0.8904,0.8823,0.8725,0.8696,0.8685,0.8683,0.8681,0.8673,0.8611,0.8603,0.8685,0.8685,0.8686,0,0,0.9727,0.9658,0.9621,0.9507,0.9447,0.9375,0.9363,0.9288,0.9232,0.918,0.9083,0.9027,0.8931,0.8832,0.8784,0.8784,0.8644,0.8676,0.8676,0.8668,0.8606,0.8598,0.8591,0.8683,0.8683,0.8684,0,0,0.9686,0.963,0.9565,0.9506,0.9416,0.9364,0.9349,0.925,0.9211,0.9114,0.9072,0.9001,0.8862,0.8794,0.8741,0.8671,0.864,0.8646,0.8632,0.8573,0.8566,0.856,0.8529,0.852,0.8639,0.8639,0.8639,0,0.9693,0.9589,0.9534,0.9461,0.9409,0.9363,0.9293,0.9236,0.9122,0.9085,0.9087,0.8909,0.8841,0.8722,0.8705,0.8666,0.864,0.8657,0.8573,0.8566,0.8559,0.8529,0.8518,0.864,0.864,0.8639,0.8639,0,0.9599,0.9527,0.9484,0.938,0.9323,0.9252,0.918,0.9129,0.9094,0.904,0.8937,0.8855,0.8754,0.8723,0.8688,0.8597,0.8599,0.8589,0.8591,0.8553,0.8523,0.8512,0.8641,0.8641,0.864,0.864,0,0,0.958,0.9446,0.9431,0.938,0.9277,0.9217,0.914,0.9046,0.9,0.8922,0.8852,0.8734,0.8722,0.8662,0.8618,0.8566,0.8509,0.856,0.8556,0.8549,0.8396,0.8403,0.8391,0.8489,0.8487,0.8485,0.8403,0,0.9523,0.9391,0.9337,0.9227,0.9155,0.9109,0.9041,0.8966,0.8913,0.8839,0.8778,0.8694,0.8687,0.865,0.8597,0.8528,0.8476,0.8533,0.8416,0.8412,0.8438,0.8376,0.8383,0.831,0.8391,0.8389,0.8388,0,0.9439,0.9364,0.9248,0.9149,0.9117,0.9058,0.8964,0.8897,0.8809,0.8772,0.8705,0.8663,0.8574,0.8585,0.8457,0.8496,0.8445,0.8402,0.8398,0.8381,0.8396,0.8353,0.8286,0.8273,0.837,0.8371,0.8373,0,0.9431,0.9301,0.9213,0.9172,0.9056,0.9015,0.8963,0.8877,0.8822,0.8738,0.87,0.8605,0.8552,0.8477,0.8407,0.8423,0.8283,0.829,0.8244,0.8246,0.8215,0.8217,0.8134,0.8189,0.8189,0.8189,0.819,0,0.9371,0.93,0.9208,0.9154,0.9071,0.9007,0.8925,0.8869,0.8792,0.8721,0.8674,0.8606,0.8522,0.8442,0.8386,0.8285,0.8262,0.8225,0.8211,0.8227,0.8231,0.819,0.8191,0.8186,0.8187,0.8188,0.8188,0,0.9348,0.9284,0.9185,0.9083,0.9055,0.8998,0.8908,0.8849,0.8794,0.8704,0.8678,0.8588,0.8491,0.8416,0.8288,0.8251,0.8141,0.8128,0.8173,0.8165,0.8122,0.8125,0.8005,0.7983,0.8058,0.8058,0.8057,0,0.9312,0.9257,0.915,0.9101,0.9051,0.8973,0.8917,0.885,0.8792,0.8685,0.8638,0.8539,0.8456,0.8301,0.822,0.812,0.8101,0.8066,0.8085,0.8102,0.8094,0.8096,0.8087,0.8062,0.8062,0.8061,0.8061,0,0.9254,0.9224,0.9149,0.906,0.8995,0.8921,0.8845,0.8807,0.8724,0.8661,0.8563,0.8499,0.8369,0.8268,0.816,0.8099,0.8063,0.8056,0.8039,0.8054,0.808,0.806,0.8161,0.8058,0.8059,0.8059,0.8059,0.8059,0.922,0.9167,0.9082,0.8997,0.8934,0.8863,0.8803,0.874,0.8659,0.8551,0.8515,0.8413,0.8318,0.817,0.8108,0.8022,0.802,0.7998,0.7991,0.7985,0.7984,0.8098,0.8003,0.8003,0.8003,0.8003,0.8003,0,0.9155,0.9098,0.9021,0.8918,0.8849,0.8828,0.8741,0.8683,0.8595,0.8514,0.8433,0.8317,0.8218,0.8129,0.8023,0.7971,0.7951,0.7945,0.7946,0.7931,0.7995,0.8017,0.7962,0.7962,0.7962,0.7962,0.7962,0.7962,0.9113,0.9021,0.8981,0.8853,0.8795,0.8698,0.865,0.8581,0.8516,0.839,0.8309,0.8253,0.8165,0.8053,0.7958,0.7934,0.7894,0.7891,0.7862,0.7922,0.7927,0.7932,0.7953,0.7885,0.7885,0.7804,0.7804,0.7803]},{"header":{"parameterUnit":"m.s-1","parameterCategory":1,"la1":30.2991,"la2":30.254,"lo1":-89.0895,"lo2":-89.0444,"dy":0.0017,"dx":0.0017,"nx":28,"ny":28,"refTime":"2024-09-24T21:00:00:Z","depth":0,"parameterNumber":3,"parameterNumberName":"V-component_of_WINDS"},"data":[0,0,0,0,0,0,0,0,0,0,0,0,0,0,0,0,0,0,0,0,0,0,0,0,0,0,0,0,0,0,0,0,0,0,0,0,0,0,0,0,0,0,0,0,0,0,0,0,0,0,0,0,0,0,0,0,0,0,-0.0615,-0.0612,0,-0.0423,-0.0421,-0.0419,-0.0393,-0.0395,-0.0397,-0.0398,-0.0201,-0.0194,-0.0188,0,0,0,0,0,0,0,0,0,0,0,0,0,-0.0956,-0.095,-0.0615,-0.0612,-0.061,-0.0423,-0.0421,-0.0418,-0.0393,-0.0395,-0.0397,-0.0399,-0.0203,-0.0195,-0.0187,0,0,0,0,0,0,0,0,0,0,0,0,0,-0.0791,-0.0948,-0.0615,-0.0575,-0.0569,-0.0424,-0.0421,-0.0418,-0.0392,-0.0395,-0.0398,-0.04,-0.0206,-0.0196,-0.0186,-0.0067,0,0,-0.0154,-0.0149,0,0,0,0,0,0,0,0,-0.08,-0.0778,-0.0583,-0.0577,-0.0571,-0.0435,-0.0469,-0.03,-0.0392,-0.0459,-0.0399,-0.0402,-0.0277,-0.0261,-0.0219,-0.0058,-0.0049,-0.0153,-0.0147,-0.0142,-0.0139,0,0,0,0,0,0,0,-0.0812,-0.0786,-0.0539,-0.058,-0.0573,-0.0566,-0.0545,-0.0437,-0.0355,-0.0454,-0.0451,-0.0429,-0.0274,-0.0229,-0.0214,-0.0046,-0.0153,-0.0144,-0.0138,-0.0134,0.0222,0.0225,0,0,0,0,0,0,-0.0831,-0.0796,-0.0545,-0.0533,-0.0695,-0.0557,-0.0534,-0.0476,-0.0356,-0.0341,-0.0427,-0.0429,-0.0245,-0.0226,-0.0207,-0.0061,-0.0142,-0.0133,-0.0127,0.0218,0.0222,0.0226,0,0,0,0,0,0,-0.0838,-0.0809,-0.0553,-0.0664,-0.0631,-0.0548,-0.0483,-0.0471,-0.0426,-0.0336,-0.0321,-0.0396,-0.0247,-0.0221,-0.0102,-0.0053,-0.0128,-0.0118,0.0215,0.022,0.0224,0.0233,0,0,0,0,0,0,-0.0848,-0.0811,-0.0766,-0.0663,-0.0625,-0.0452,-0.048,-0.0465,-0.0408,-0.0408,-0.0303,-0.0288,-0.0247,-0.0118,-0.0092,-0.004,-0.011,0.0211,0.0217,0.0223,0.0229,0.0237,0.0245,0,0,0,0,0,-0.086,-0.0771,-0.0764,-0.0734,-0.0567,-0.0449,-0.0427,-0.0382,-0.0404,-0.0358,-0.03,-0.0292,-0.0062,-0.0106,-0.0076,-0.0021,0.0208,0.0215,0.0222,0.0225,0.0236,0.0245,0,0,0,0,0,0,-0.0871,-0.0757,-0.0748,-0.0623,-0.0546,-0.0445,-0.0385,-0.0372,-0.0287,-0.029,-0.0237,-0.0213,-0.0096,-0.0046,-0.0097,0.01,0.0071,0.0084,0.0063,0.0074,0.0082,0.0066,-0.0102,0,0,0,0,0,-0.0858,-0.0773,-0.0678,-0.0576,-0.0538,-0.0468,-0.0415,-0.0387,-0.0305,-0.0272,-0.0206,-0.0126,-0.0036,0.0022,0.011,0.0237,0.026,0.029,0.0298,0.0304,0.0314,0.0385,0.0399,0.0249,0.0249,0.0249,0,0,-0.0832,-0.0759,-0.0709,-0.0576,-0.0514,-0.0426,-0.0441,-0.0348,-0.0282,-0.0258,-0.0142,-0.009,0.0003,0.0126,0.0184,0.0172,0.0361,0.0313,0.0317,0.0325,0.0394,0.0408,0.042,0.0254,0.0253,0.0253,0,0,-0.074,-0.0676,-0.0585,-0.0521,-0.0426,-0.0379,-0.0357,-0.0258,-0.0223,-0.0105,-0.0085,-0.0005,0.0149,0.0214,0.0267,0.0385,0.0396,0.0413,0.0455,0.0523,0.0534,0.0545,0.0586,0.0601,0.0423,0.0423,0.0423,0,-0.072,-0.0587,-0.0539,-0.0447,-0.0389,-0.0362,-0.0269,-0.0209,-0.009,-0.0051,-0.0066,0.0128,0.0192,0.0331,0.036,0.0403,0.0429,0.04,0.0529,0.054,0.0551,0.0591,0.0606,0.0425,0.0424,0.0424,0.0424,0,-0.0567,-0.0475,-0.0413,-0.0299,-0.0234,-0.0141,-0.0079,-0.0018,0.0005,0.0053,0.0173,0.0252,0.0355,0.0391,0.0415,0.0534,0.0523,0.0518,0.0489,0.0565,0.0604,0.062,0.0426,0.0426,0.0426,0.0425,0,0,-0.0479,-0.0338,-0.0316,-0.0263,-0.0155,-0.0083,0.0011,0.0113,0.0163,0.0246,0.0325,0.0456,0.0452,0.0512,0.0544,0.0604,0.0692,0.0592,0.0595,0.0607,0.0827,0.0829,0.0846,0.0701,0.0704,0.0706,0.0819,0,-0.0375,-0.0207,-0.0161,-0.0018,0.0067,0.0095,0.0177,0.0252,0.03,0.038,0.0434,0.0524,0.0513,0.0549,0.061,0.0668,0.0737,0.0661,0.0775,0.0779,0.0749,0.0866,0.0868,0.097,0.0834,0.0837,0.0839,0,-0.0233,-0.0148,0.0002,0.01,0.0138,0.0211,0.0308,0.0384,0.0471,0.0502,0.057,0.0597,0.0696,0.0664,0.0802,0.0749,0.0799,0.0835,0.084,0.0851,0.0812,0.0878,0.1004,0.1018,0.0863,0.0861,0.0859,0,-0.0185,-0.0033,0.0077,0.0121,0.0239,0.0289,0.034,0.0424,0.0483,0.0568,0.0607,0.0703,0.0755,0.0829,0.0881,0.0852,0.1014,0.0986,0.1042,0.1041,0.1073,0.107,0.1207,0.1108,0.1108,0.1108,0.1107,0,-0.0075,0.0015,0.01,0.0167,0.027,0.0324,0.0424,0.0477,0.0552,0.063,0.0661,0.0733,0.0799,0.088,0.0922,0.103,0.1054,0.1081,0.1091,0.1077,0.1074,0.1109,0.1103,0.1112,0.1111,0.111,0.1109,0,-0.0006,0.0055,0.0176,0.0278,0.0306,0.0377,0.0464,0.053,0.058,0.0679,0.0705,0.0783,0.0881,0.0941,0.1065,0.1093,0.1211,0.1219,0.1182,0.1186,0.1238,0.1232,0.1401,0.1426,0.1312,0.1313,0.1313,0,0.0059,0.013,0.0239,0.0294,0.0346,0.0433,0.0493,0.0549,0.061,0.0715,0.0769,0.0869,0.0952,0.1107,0.1175,0.127,0.1279,0.1332,0.1294,0.1278,0.1279,0.1273,0.128,0.1338,0.1339,0.134,0.134,0,0.0168,0.0195,0.0279,0.0376,0.0446,0.0524,0.0602,0.0645,0.0715,0.0782,0.0883,0.0947,0.1074,0.1173,0.1274,0.1327,0.1345,0.1352,0.137,0.1356,0.1331,0.1344,0.1197,0.1348,0.1347,0.1346,0.1346,0.1346,0.0237,0.03,0.0387,0.0481,0.0546,0.0619,0.0686,0.0745,0.0829,0.0937,0.0966,0.1071,0.1157,0.1294,0.135,0.1433,0.1425,0.1451,0.1458,0.1463,0.1463,0.1319,0.1452,0.1452,0.1452,0.1452,0.1452,0,0.0345,0.0403,0.0489,0.0597,0.0672,0.0683,0.0771,0.0831,0.0923,0.1002,0.1083,0.1199,0.1295,0.1371,0.1469,0.1521,0.1532,0.1545,0.1541,0.1553,0.1465,0.1439,0.1535,0.1535,0.1535,0.1535,0.1535,0.1535,0.0411,0.0519,0.0557,0.0698,0.0756,0.0859,0.0907,0.0975,0.1038,0.1165,0.1245,0.1294,0.1372,0.1477,0.1566,0.1586,0.162,0.1631,0.1652,0.1568,0.1559,0.155,0.1526,0.1638,0.1639,0.1733,0.1734,0.1735]}]]